Location: *
(2.8000°N, 113.8833°E)
Time: 14:16:33
(UTC+00:00)

Daily predictions for brighter satellites

Satellite Brightness Start Highest point End
(mag) Time Altitude Azimuth Time Altitude Azimuth Time Altitude Azimuth
DMSP B5D2-2 3.9 12:02:06 10° NNE 12:07:16 66° ESE 12:12:29 10° S
Cosmos 2251 Rocket 3.7 12:02:44 10° SSW 12:08:00 71° WNW 12:13:18 10° N
Atlas Centaur 2 2.9 12:06:23 10° NW 12:10:24 30° N 12:10:24 30° N
SL-08 ROCKET BODY 4.4 12:07:36 10° N 12:13:35 80° W 12:19:29 10° S
ARIANE 5 R/B 3.7 12:17:25 10° WSW 12:18:22 21° SW 12:18:22 21° SW
ARIANE 5 R/B 3.9 12:16:27 10° WSW 12:20:50 59° SSE 21:11:24 10° E
Ariane H10+ 3.3 12:25:02 10° WSW 12:29:24 25° SW 12:29:24 25° SW
USA 229 DEB 4.2 12:25:45 10° NNW 12:33:18 64° WSW 12:37:12 31° S
USA 229 4.2 12:25:51 10° NNW 12:33:24 65° WSW 12:37:12 32° S
Cosmos 2278 Rocket 2.9 12:32:33 10° NNW 12:38:00 49° WSW 12:38:57 44° SW
NOSS 3-1 (A) 4.2 12:33:09 10° NNW 12:41:56 88° WSW 12:43:46 63° SSE
Hubble Space Telescope 3.3 12:38:10 10° WSW 12:39:28 19° WSW 12:39:28 19° WSW
COSMOS 2428 4.4 20:09:29 10° NNE 20:14:21 30° ENE 20:19:13 10° SE
Cosmos 2322 4.4 20:23:29 45° SSE 20:23:29 45° SSE 20:27:23 10° SSE
CENTAUR R/B 3.6 20:26:45 25° N 20:26:45 25° N 20:29:12 10° NNE
Cosmos 2333 4.4 20:26:16 64° SE 20:26:16 64° SE 20:31:09 10° SSE
Cosmos 2219 Rocket 3.1 20:22:31 10° N 20:27:49 45° ENE 20:33:07 10° SSE
ARIANE 44LP R/B 3.2 20:51:16 50° ESE 20:51:16 50° ESE 20:52:53 10° E
Palapa B4 Rocket 4.1 20:50:59 38° SSW 20:52:12 44° SSE 20:56:20 10° E
Cosmos 1634 Rocket 4.0 20:47:54 10° NNW 20:53:49 52° W 20:59:49 10° SSW
Cosmos 2333 Rocket 2.0 20:49:53 10° NNW 20:55:31 80° WSW 21:01:12 10° SSE
Meteor 2-4 Rocket 3.9 20:56:35 44° SW 20:57:53 52° W 21:03:35 10° N
Cosmos 1484 Rocket 2.6 20:54:30 10° NNE 20:58:15 86° ESE 20:58:37 71° S
Gbstr 26 Del rocket 4.5 20:53:02 15° SSW 20:59:17 62° SE 21:05:18 10° NE
SWIFT 4.3 20:59:55 18° NNW 20:59:55 18° NNW 21:02:38 10° NNE
Ariane H10+ 3.8 20:56:52 29° W 21:03:01 78° N 21:06:50 10° E
Cosmos 1092 Rocket 4.1 20:59:36 10° S 21:05:55 79° E 21:12:14 10° N
Cosmos 2142 Rocket 4.5 21:00:25 10° NNW 21:06:34 57° W 21:12:39 10° S
Meteor 1-13 Rocket 4.2 21:01:04 10° SSW 21:06:58 69° W 21:12:47 10° N
CZ-4B R/B 3.1 21:04:02 10° N 21:08:22 62° WNW 21:11:50 16° SSW
H-2A R/B 2.3 21:05:23 10° N 21:09:15 56° WNW 21:09:51 50° WSW
Ariane H10+ 2.6 21:08:57 45° SW 21:09:55 60° S 21:16:02 10° E
ATLAS 3B R/B 2.8 21:08:35 26° SW 21:12:07 48° WNW 21:18:32 10° N
Hubble Space Telescope 3.7 21:13:07 10° NNE 21:13:35 10° NNE 21:14:02 10° NNE
FENGYUN 3A 3.6 21:10:54 10° N 21:16:16 85° WNW 21:21:39 10° SSW
Meteor 1-4 Rocket 2.7 21:17:03 35° SW 21:18:08 49° W 21:21:43 10° N
Cosmos 2237 Rocket 3.3 21:17:25 10° N 21:22:50 47° ENE 21:28:16 10° SSE
BREEZE-M DEB (TANK) 2.7 21:22:02 17° SW 21:26:23 45° WNW 21:29:13 10° NNE
Cosmos 2263 Rocket 2.3 21:21:14 10° S 21:26:50 78° ESE 21:32:27 10° NNE
Intelsat 5-3 Rocket 2.7 21:27:03 25° NW 21:27:36 27° NNW 21:30:44 10° NE
Cosmos 2026 Rocket 4.0 21:21:35 10° S 21:27:52 86° E 21:34:02 10° N
USA 234 3.9 21:23:34 10° SE 21:29:57 56° NE 21:36:18 10° NNW
Cosmos 1782 Rocket 4.3 21:27:25 10° NW 21:31:06 28° W 21:34:49 10° SSW
PSLV R/B 3.9 21:29:45 10° N 21:33:45 59° WNW 21:37:42 10° SSW
Cosmos 2227 4.2 21:29:01 10° SSW 21:34:38 65° WNW 21:40:12 10° N
METEOR-M 4.2 21:29:27 10° N 21:34:39 55° WNW 21:39:51 10° SSW
PSLV R/B 3.9 21:30:36 10° S 21:34:46 75° WSW 21:38:58 10° NNW
SeaSat 1 2.4 21:31:38 10° SSE 21:36:33 82° WSW 21:41:28 10° NNW
Sakura Rocket 4.1 21:37:43 17° WSW 21:38:56 20° SSW 21:41:41 10° SSE
Cosmos 1428 Rocket 4.4 21:36:51 10° S 21:42:56 76° W 21:49:01 10° N
Meteor 2-9 Rocket 4.4 21:37:33 10° NNW 21:43:12 51° W 21:48:48 10° S
ARIANE 5 R/B 2.4 21:40:17 13° WSW 21:43:20 29° S 21:45:48 10° ESE
Cosmos 1544 3.9 21:45:45 10° NW 21:48:53 27° W 21:52:04 10° SSW
NOSS 0 Rocket 4.0 21:44:42 10° NNW 21:50:41 57° WSW 21:56:43 10° S
Meteor 1-23 Rocket 4.5 21:46:41 10° SSW 21:52:01 46° W 21:57:24 10° NNW
TIMED 4.5 21:50:09 10° NNW 21:54:26 64° WSW 21:58:45 10° S
GPS 2-14 Rocket1 3.0 21:52:07 12° W 21:55:43 53° NNW 21:59:29 10° NE
Cosmos 1867 4.3 21:51:32 10° SW 21:56:19 32° WNW 22:01:07 10° N
COSMOS 2428 3.9 21:54:26 10° WNW 21:58:18 19° WSW 22:02:11 10° SSW
Okean 2 3.8 21:55:03 10° S 21:59:12 70° E 22:03:19 10° N
ALOS 3.5 21:57:03 10° NNW 22:00:28 21° WNW 22:03:56 10° SW
Ariane H10+ 2.7 21:57:20 10° W 22:00:47 52° S 22:06:48 10° ESE
Okean O Rocket 1.6 22:00:54 10° N 22:05:17 69° WNW 22:09:42 10° SSW
Cosmos 1356 3.3 22:01:53 10° N 22:05:18 76° W 22:08:42 10° S
Ariane H10 3.4 22:04:52 10° W 22:18:50 61° N 22:22:39 10° ENE
Maqsat-H 4.3 22:23:51 10° W 23:13:10 75° N 23:19:10 10° E
